Terminal Aerodrome Forecast
Issued by NWS

Home | Current Version | Previous Version | Text Only | Print | Product List | Glossary On
Versions: 1 2 3 4 5 6 7 8 9 10 11 12 13 14 15 16 17 18 19 20 21 22 23 24 25 26 27 28 29 30 31 32 33 34 35 36 37 38 39 40 41 42 43 44 45 46 47 48 49 50
000
FTUS42 KRAH 032335
TAFRWI
TAF
KRWI 032335Z 0400/0424 VRB03KT P6SM SCT050 BKN250
     FM040700 00000KT 3SM BR SCT012
      TEMPO 0409/0412 1SM BR BKN003
     FM041700 03006KT P6SM BKN040
      TEMPO 0420/0424 2SM SHRA BKN025=

USA.gov is the U.S. government's official web portal to all federal, state and local government web resources and services.